When you browse on this site, cookies collect data to enhance your experience and personalize the content and advertising you see.
Visit our Privacy Policy to learn more. By continuing to use the site, you agree to this use of cookies and data.
  • In Lithuania
  • List of Countries
  • For 7 days
  • Water Temperature
  • Satellite Maps
  • Weather Map
  • Weather Widgets
  • user-avatar
    Login

    Hourly Weather Chylin

    Today, 18 February, Monday

    Time Temperature Precipitation Wind Pressure Humidity
    00:00 +6°C° 0 mm 1 mps 759 mmHg 89%
    01:00 +5°C° 0 mm 1 mps 758 mmHg 89%
    02:00 +5°C° 0 mm 1 mps 758 mmHg 89%
    03:00 +5°C° 0 mm 1 mps 758 mmHg 88%
    04:00 +4°C° 0 mm 1 mps 758 mmHg 87%
    05:00 +3°C° 0 mm 2 mps 758 mmHg 87%
    06:00 +3°C° 0 mm 2 mps 758 mmHg 86%
    07:00 +2°C° 0 mm 2 mps 758 mmHg 84%
    08:00 +3°C° 0 mm 2 mps 757 mmHg 79%
    09:00 +4°C° 0 mm 2 mps 757 mmHg 74%
    10:00 +6°C° 0 mm 2 mps 757 mmHg 68%
    11:00 +7°C° 0 mm 3 mps 757 mmHg 64%
    12:00 +8°C° 0 mm 3 mps 757 mmHg 60%
    13:00 +9°C° 0 mm 3 mps 757 mmHg 55%
    14:00 +9°C° 0 mm 2 mps 756 mmHg 56%
    15:00 +9°C° 0 mm 2 mps 756 mmHg 57%
    16:00 +9°C° 0 mm 2 mps 755 mmHg 58%
    17:00 +8°C° 0 mm 2 mps 755 mmHg 61%
    18:00 +7°C° 0 mm 2 mps 755 mmHg 63%
    19:00 +6°C° 0 mm 2 mps 755 mmHg 66%
    20:00 +5°C° 0 mm 2 mps 755 mmHg 67%
    21:00 +5°C° 0 mm 2 mps 754 mmHg 67%
    22:00 +5°C° 0 mm 2 mps 754 mmHg 68%
    23:00 +4°C° 0 mm 2 mps 754 mmHg 70%

    Tomorrow, 19 February, Tuesday

    Time Temperature Precipitation Wind Pressure Humidity
    00:00 +3°C° 0 mm 3 mps 754 mmHg 73%
    01:00 +3°C° 0 mm 3 mps 754 mmHg 75%
    02:00 +2°C° 0 mm 3 mps 753 mmHg 76%
    03:00 +2°C° 0 mm 3 mps 753 mmHg 78%
    04:00 +1°C° 0 mm 3 mps 753 mmHg 79%
    05:00 +1°C° 0 mm 3 mps 752 mmHg 78%
    06:00 0°C° 0 mm 4 mps 752 mmHg 78%
    07:00 0°C° 0 mm 4 mps 752 mmHg 77%
    08:00 +1°C° 0 mm 4 mps 752 mmHg 71%
    09:00 +4°C° 0 mm 4 mps 751 mmHg 66%
    10:00 +5°C° 0 mm 5 mps 751 mmHg 60%
    11:00 +7°C° 0 mm 5 mps 751 mmHg 56%
    12:00 +8°C° 0 mm 6 mps 751 mmHg 52%
    13:00 +9°C° 0 mm 6 mps 751 mmHg 49%
    14:00 +9°C° 0 mm 6 mps 751 mmHg 53%
    15:00 +9°C° 0 mm 5 mps 750 mmHg 56%
    16:00 +10°C° 0 mm 4 mps 750 mmHg 60%
    17:00 +8°C° 0.1 mm 5 mps 750 mmHg 66%
    18:00 +7°C° 0.1 mm 5 mps 751 mmHg 73%
    19:00 +7°C° 0.1 mm 5 mps 751 mmHg 79%
    20:00 +6°C° 0.1 mm 5 mps 751 mmHg 81%
    21:00 +5°C° 0.1 mm 5 mps 751 mmHg 83%
    22:00 +5°C° 0.1 mm 4 mps 751 mmHg 84%
    23:00 +5°C° 0 mm 5 mps 751 mmHg 84%

    Day after tomorrow, 20 February, Wednesday

    Time Temperature Precipitation Wind Pressure Humidity
    00:00 +3°C° 0 mm 5 mps 752 mmHg 84%
    01:00 +3°C° 0 mm 6 mps 752 mmHg 84%
    02:00 +3°C° 0 mm 6 mps 752 mmHg 86%
    03:00 +2°C° 0 mm 6 mps 752 mmHg 88%
    04:00 +2°C° 0 mm 6 mps 752 mmHg 90%
    05:00 +2°C° 0 mm 6 mps 752 mmHg 86%
    06:00 +2°C° 0 mm 6 mps 753 mmHg 83%
    07:00 +3°C° 0 mm 6 mps 753 mmHg 79%
    08:00 +3°C° 0 mm 6 mps 754 mmHg 78%
    09:00 +3°C° 0 mm 6 mps 754 mmHg 77%
    10:00 +3°C° 0 mm 7 mps 754 mmHg 75%
    11:00 +3°C° 0 mm 6 mps 755 mmHg 75%
    12:00 +4°C° 0 mm 6 mps 755 mmHg 75%
    13:00 +4°C° 0 mm 6 mps 755 mmHg 75%
    14:00 +4°C° 0 mm 6 mps 755 mmHg 74%
    15:00 +5°C° 0 mm 5 mps 755 mmHg 74%
    16:00 +5°C° 0 mm 5 mps 755 mmHg 73%
    17:00 +5°C° 0 mm 4 mps 756 mmHg 75%
    18:00 +5°C° 0 mm 4 mps 756 mmHg 77%
    19:00 +5°C° 0 mm 4 mps 756 mmHg 79%
    20:00 +5°C° 0 mm 4 mps 756 mmHg 80%
    21:00 +5°C° 0 mm 4 mps 756 mmHg 81%
    22:00 +5°C° 0 mm 4 mps 756 mmHg 81%
    23:00 +5°C° 0 mm 4 mps 756 mmHg 83%

    21 February, Thursday

    Time Temperature Precipitation Wind Pressure Humidity
    00:00 +4°C° 0 mm 4 mps 756 mmHg 84%
    01:00 +4°C° 0 mm 4 mps 756 mmHg 86%
    02:00 +3°C° 0.1 mm 5 mps 756 mmHg 85%
    03:00 +3°C° 0.1 mm 5 mps 756 mmHg 84%
    04:00 +3°C° 0.1 mm 5 mps 755 mmHg 83%
    05:00 +3°C° 0.4 mm 6 mps 755 mmHg 85%
    06:00 +3°C° 0.4 mm 6 mps 755 mmHg 87%
    07:00 +3°C° 0.4 mm 6 mps 755 mmHg 89%
    08:00 +3°C° 0.5 mm 6 mps 755 mmHg 89%
    09:00 +4°C° 0.5 mm 6 mps 755 mmHg 89%
    10:00 +4°C° 0.5 mm 6 mps 755 mmHg 89%
    11:00 +4°C° 0.1 mm 6 mps 756 mmHg 88%
    12:00 +5°C° 0.1 mm 6 mps 756 mmHg 87%
    13:00 +5°C° 0.1 mm 7 mps 756 mmHg 87%
    14:00 +5°C° 0.1 mm 6 mps 756 mmHg 87%
    15:00 +5°C° 0.1 mm 6 mps 756 mmHg 87%
    16:00 +5°C° 0.1 mm 6 mps 756 mmHg 88%
    17:00 +5°C° 0.1 mm 6 mps 756 mmHg 89%
    18:00 +6°C° 0.1 mm 5 mps 757 mmHg 90%
    19:00 +6°C° 0.1 mm 5 mps 757 mmHg 92%
    20:00 +6°C° 0.1 mm 5 mps 758 mmHg 89%
    21:00 +6°C° 0.1 mm 5 mps 758 mmHg 87%
    22:00 +6°C° 0.1 mm 5 mps 758 mmHg 84%
    23:00 +6°C° 0 mm 5 mps 759 mmHg 86%

    22 February, Friday

    Time Temperature Precipitation Wind Pressure Humidity
    00:00 +5°C° 0 mm 5 mps 759 mmHg 87%
    01:00 +5°C° 0 mm 5 mps 760 mmHg 88%
    02:00 +5°C° 0 mm 5 mps 760 mmHg 87%
    03:00 +5°C° 0 mm 5 mps 761 mmHg 86%
    04:00 +3°C° 0 mm 5 mps 761 mmHg 86%
    05:00 +2°C° 0 mm 5 mps 762 mmHg 85%
    06:00 +1°C° 0 mm 5 mps 763 mmHg 84%
    07:00 0°C° 0 mm 4 mps 764 mmHg 82%
    08:00 +1°C° 0 mm 4 mps 765 mmHg 77%
    09:00 +1°C° 0 mm 4 mps 766 mmHg 72%
    10:00 +1°C° 0 mm 4 mps 767 mmHg 66%
    11:00 +3°C° 0 mm 4 mps 767 mmHg 61%
    12:00 +3°C° 0 mm 3 mps 768 mmHg 57%
    13:00 +4°C° 0 mm 3 mps 768 mmHg 52%
    14:00 +4°C° 0 mm 3 mps 769 mmHg 51%
    15:00 +4°C° 0 mm 3 mps 769 mmHg 51%
    16:00 +3°C° 0 mm 3 mps 769 mmHg 50%
    17:00 +3°C° 0 mm 3 mps 770 mmHg 53%
    18:00 +3°C° 0 mm 2 mps 771 mmHg 57%
    19:00 +2°C° 0 mm 2 mps 771 mmHg 60%
    20:00 +1°C° 0 mm 2 mps 771 mmHg 61%
    21:00 +1°C° 0 mm 2 mps 772 mmHg 62%
    22:00 -1°C° 0 mm 2 mps 772 mmHg 62%
    23:00 -1°C° 0 mm 2 mps 772 mmHg 63%

    23 February, Saturday

    Time Temperature Precipitation Wind Pressure Humidity
    00:00 -1°C° 0 mm 2 mps 772 mmHg 63%
    01:00 -1°C° 0 mm 2 mps 772 mmHg 63%
    02:00 -1°C° 0 mm 3 mps 771 mmHg 64%
    03:00 -1°C° 0 mm 3 mps 771 mmHg 65%
    04:00 -1°C° 0 mm 3 mps 771 mmHg 66%
    05:00 -1°C° 0 mm 3 mps 770 mmHg 67%
    06:00 -1°C° 0 mm 3 mps 770 mmHg 69%
    07:00 -1°C° 0 mm 3 mps 770 mmHg 71%
    08:00 0°C° 0 mm 4 mps 769 mmHg 70%
    09:00 +1°C° 0 mm 4 mps 769 mmHg 69%
    10:00 +2°C° 0 mm 5 mps 769 mmHg 68%
    11:00 +3°C° 0 mm 5 mps 768 mmHg 71%
    12:00 +5°C° 0 mm 5 mps 767 mmHg 75%
    13:00 +5°C° 0 mm 6 mps 767 mmHg 78%
    14:00 +7°C° 0 mm 6 mps 767 mmHg 79%
    15:00 +7°C° 0 mm 5 mps 766 mmHg 80%
    16:00 +8°C° 0 mm 5 mps 766 mmHg 81%
    17:00 +7°C° 0 mm 5 mps 766 mmHg 84%
    18:00 +7°C° 0 mm 5 mps 766 mmHg 86%
    19:00 +6°C° 0 mm 4 mps 765 mmHg 89%
    20:00 +6°C° 0 mm 4 mps 765 mmHg 89%
    21:00 +5°C° 0 mm 4 mps 765 mmHg 89%
    22:00 +5°C° 0 mm 4 mps 765 mmHg 90%
    23:00 +4°C° 0 mm 4 mps 765 mmHg 90%
    Show more